Погода в Квекве

Зимбабве     18°56′00″S   29°48′25″E
темп.,
°C
ветер,
м/с
пор.,
м/с
влажн.,
%
обл.,
%
осадки,
мм/ч
давл.,
гПа
погр.,
м
10 августа, ср
ср1023:00+16юв410460 0.0 1020300
02:00+13вюв310600 0.0 1020249
05:00+11вюв28680 0.0 1021150
08:00+16вюв35500 0.0 1022271
11:00+25ссв22220 0.0 10191293
14:00+29вюв01140 0.0 10152343
17:00+26вюв11160 0.0 101440
20:00+19ююв39300 0.0 1018186
11 августа, чт
чт1123:00+16вюв27410 0.0 1020141
02:00+13вюв38520 0.0 1020159
05:00+12вюв26590 0.0 1021103
08:00+16в35520 0.0 1021257
11:00+25всв23250 0.0 10191614
14:00+30в12150 0.0 10152442
17:00+27юв45140 0.0 1014808
20:00+19юв411270 0.0 1017241
12 августа, пт
пт1223:00+16вюв38380 0.0 1019153
02:00+13вюв23490 0.0 101947
05:00+12в22570 0.0 101939
08:00+16св23490 0.0 1020236
11:00+27с12250 0.0 10181448
14:00+29ю12160 0.0 10132346
17:00+27вюв02170 0.0 1012981
20:00+20ююв34250 0.0 101550
13 августа, сб
сб1323:00+16в23300 0.0 101744
02:00+14в24390 0.0 101676
05:00+12всв22490 0.0 101714
08:00+17св24430 0.0 1017212
11:00+26ссз33220 0.0 10141403
14:00+30ссз22142 0.0 10092342
17:00+28с23144 0.0 1008137
20:00+21ссз22230 0.0 101111
14 августа, вс
вс1423:00+18зсз223141 0.0 101314
02:00+15ссз11393 0.0 101311
05:00+14всв11465 0.0 101310
08:00+19св123760 0.0 1014173
11:00+29ссз34175 0.0 10111468
14:00+33зсз24100 0.0 10073113
17:00+31зюз34110 0.0 1006187
20:00+21юз11190 0.0 101123